Home > Time Zones > World Clock > Weather > Fiji > Nadi > Past weeks

Flag for Fiji Weather past 2 weeks in Nadi, Fiji

Now
84 °F

Passing clouds.


Feels Like: 90 °F
Forecast: 75 / 83 °F
Wind: 15 mph from Northwest

Location: Nandi

Current Time: Sep 21, 2014 at 2:26:30 PM

Latest Report: Sep 21, 2014 at 2:00 PM


Visibility: N/A

Pressure: 29.89 "Hg

Humidity: 66%

Dew point: 72 °F

Location of NadiLocation

Historic Weather in Nadi — Graph

°F

Nadi temperature yesterday

Maximum temperature yesterday: 84 °F (at 10:00 AM)
Minimum temperature yesterday: 68 °F (at 5:00 AM)
Average temperature yesterday: 77 °F

Past Weeks' High & Low Weather Summary

 TemperatureHumidityPressure
High90 °F (Sep 8, 2:00 PM)100% (Sep 20, 1:00 AM)30.04 "Hg (Sep 20, 1:00 AM)
Low64 °F (Sep 14, 6:00 AM)37% (Sep 14, 10:00 AM)29.83 "Hg (Sep 13, 3:00 PM)
Average77 °F74%29.94 "Hg
* Reported Sep 6 1:00 PM — Sep 21 1:00 PM, Nadi, Weather by CustomWeather, © 2014

Note: Actual official high and low records may vary slightly from our data, if they occured in-between our weather recording intervals... More about our weather records

Advertising

Nadi weather history for previous 24 hours

 ConditionsComfort  
Time TempWeatherWind HumidityBarometerVisibility
1:00 PM
Sep 21
84 °FPassing clouds.16 mph66%29.89 "HgN/A
12:00 PM84 °FPassing clouds.16 mph66%29.92 "HgN/A
11:00 AM84 °FPassing clouds.13 mph66%29.92 "HgN/A
10:00 AM86 °FScattered clouds.6 mph52%29.95 "HgN/A
9:00 AM82 °FPartly sunny.5 mph62%29.95 "HgN/A
8:00 AM79 °FScattered clouds.7 mph70%29.95 "HgN/A
7:00 AM72 °FPassing clouds.3 mph88%29.95 "HgN/A
6:00 AM70 °FPassing clouds.3 mph94%29.95 "HgN/A
1:00 AM73 °FPassing clouds.No wind83%29.95 "HgN/A
12:00 AM75 °FPartly cloudy.5 mph83%29.95 "HgN/A
11:00 PM
Sep 20
75 °FPartly cloudy.5 mph78%29.95 "HgN/A
10:00 PM77 °FPartly cloudy.3 mph79%29.95 "HgN/A
9:00 PM79 °FPartly cloudy.8 mph74%29.95 "HgN/A
8:00 PM77 °FPartly cloudy.8 mph74%29.95 "HgN/A
7:00 PM79 °FPartly cloudy.8 mph74%29.92 "HgN/A
6:00 PM81 °FBroken clouds.10 mph66%29.89 "HgN/A
5:00 PM82 °FScattered clouds.14 mph66%29.86 "HgN/A
4:00 PM81 °FPartly sunny.16 mph74%29.86 "HgN/A
3:00 PM82 °FScattered clouds.17 mph70%29.86 "HgN/A
2:00 PM82 °FPassing clouds.16 mph66%29.89 "HgN/A
Weather by CustomWeather, © 2014

See weather overviewHow to use our weather pages